Weather History for Driggs, ID

Change the Weather History Date:

Sunday, February 16, 2014

  Actual Average (KRXE) Record (KRXE)
Temperature  
Mean Temperature 30 °F 22 °F  
Max Temperature 42 °F 32 °F 45 °F (2007)
Min Temperature 19 °F 12 °F -8 °F (2002)
Degree Days  
Heating Degree Days 34 43  
Month to date heating degree days 709  
Since 1 July heating degree days 5486  
Cooling Degree Days 0 0  
Month to date cooling degree days 0  
Year to date cooling degree days 0  
Moisture  
Dew Point 26 °F    
Average Humidity 82    
Maximum Humidity 100    
Minimum Humidity 61    
Precipitation  
Precipitation 0.07 in 0.03 in 0.20 in (2003)
Month to date precipitation 0.47  
Year to date precipitation 1.21  
Sea Level Pressure  
Sea Level Pressure 29.84 in    
Wind  
Wind Speed 14 mph (SW)    
Max Wind Speed 29 mph    
Max Gust Speed 40 mph    
Visibility 5 miles    
Events Fog , Rain , Snow    
T = Trace of Precipitation, MM = Missing Value Source: NWS Daily Summary

Daily Weather History Graph

Daily Weather History Graph

Search for Another Location

Airport:

Trip Planner

Search our weather history database for the weather conditions in past years. The results will help you decide how hot, cold, wet, or windy it might be!

Date:

Astronomy

Feb. 16, 2014 Rise Set
Actual Time 7:21 AM MST 5:56 PM MST
Civil Twilight 6:52 AM MST 6:25 PM MST
Nautical Twilight 6:18 AM MST 6:59 PM MST
Astronomical Twilight 5:45 AM MST 7:32 PM MST
Moon 8:01 PM MST (2/16) 7:48 AM MST (2/16)
Length of Visible Light 11h 33m
Length of Day
10h 34m
Full, 97% of the Moon is Illuminated
Feb 16
Full
Feb 22
Last Quarter
Mar 1
New
Mar 8
First Quarter
Mar 16
Full

Hourly Weather History & Observations

Time (MST) Temp. Windchill Dew Point Humidity Pressure Visibility Wind Dir Wind Speed Gust Speed Precip Events Conditions
12:56 AM 41.9 °F 34.6 °F 30.0 °F 63% 29.77 in 10.0 mi SSW 13.8 mph 31.1 mph N/A   Overcast
1:03 AM 42.8 °F 35.4 °F 30.2 °F 61% 29.84 in 10.0 mi SSW 15.0 mph 20.7 mph N/A   Overcast
1:56 AM 39.9 °F 32.5 °F 30.0 °F 68% 29.74 in 10.0 mi South 12.7 mph - N/A   Mostly Cloudy
2:56 AM 39.9 °F 33.4 °F 31.1 °F 71% 29.72 in 10.0 mi South 10.4 mph - 0.00 in   Mostly Cloudy
3:56 AM 36.9 °F 29.6 °F 32.0 °F 83% 29.70 in 10.0 mi SSE 10.4 mph - 0.00 in   Overcast
4:56 AM 36.0 °F 29.0 °F 31.1 °F 82% 29.68 in 10.0 mi South 9.2 mph - N/A   Overcast
5:56 AM 38.8 °F 29.7 °F 31.1 °F 74% 29.64 in 10.0 mi South 17.3 mph - N/A   Mostly Cloudy
6:56 AM 37.9 °F 28.9 °F 31.1 °F 76% 29.64 in 10.0 mi South 16.1 mph - 0.00 in Rain Light Rain
7:30 AM 37.4 °F 28.9 °F 32.0 °F 81% 29.73 in 10.0 mi South 13.8 mph - 0.00 in   Overcast
7:35 AM 35.6 °F 26.6 °F 32.0 °F 87% 29.73 in 4.0 mi SSW 13.8 mph - 0.00 in   Overcast
7:41 AM 35.6 °F 26.6 °F 32.0 °F 87% 29.74 in 1.8 mi SW 13.8 mph - 0.01 in   Overcast
7:49 AM 35.6 °F 28.0 °F 32.0 °F 87% 29.72 in 1.5 mi South 10.4 mph - 0.02 in   Overcast
7:56 AM 34.9 °F 27.7 °F 32.0 °F 89% 29.65 in 1.5 mi SSW 9.2 mph - 0.03 in   Overcast
8:03 AM 35.6 °F 28.0 °F 33.8 °F 93% 29.74 in 1.2 mi SW 10.4 mph - 0.02 in   Overcast
8:07 AM 35.6 °F 29.2 °F 33.8 °F 93% 29.73 in 2.0 mi WSW 8.1 mph - 0.02 in   Overcast
8:09 AM 35.6 °F 29.2 °F 33.8 °F 93% 29.74 in 3.0 mi WSW 8.1 mph - 0.02 in Snow Light Snow
8:17 AM 35.6 °F 28.0 °F 33.8 °F 93% 29.75 in 3.0 mi South 10.4 mph - 0.03 in Snow Light Snow
8:22 AM 35.6 °F 26.2 °F 33.8 °F 93% 29.75 in 2.0 mi South 15.0 mph - 0.04 in Snow Light Snow
8:30 AM 35.6 °F 26.2 °F 33.8 °F 93% 29.75 in 4.0 mi South 15.0 mph - 0.04 in Snow Light Snow
8:56 AM 36.0 °F 28.5 °F 32.0 °F 86% 29.66 in 10.0 mi SSE 10.4 mph 20.7 mph 0.04 in   Overcast
9:22 AM 37.4 °F 28.5 °F 28.4 °F 70% 29.73 in 10.0 mi SSW 15.0 mph - N/A   Mostly Cloudy
9:56 AM 37.9 °F 27.6 °F 29.1 °F 71% 29.62 in 10.0 mi SSW 20.7 mph 33.4 mph N/A   Partly Cloudy
10:56 AM 36.9 °F 25.6 °F 30.0 °F 76% 29.62 in 10.0 mi SW 23.0 mph 28.8 mph 0.00 in   Overcast
11:42 AM 35.6 °F 23.2 °F 28.4 °F 75% 29.73 in 4.0 mi SW 26.5 mph 34.5 mph N/A Snow Light Snow
11:56 AM 34.0 °F 20.5 °F 29.1 °F 82% 29.68 in 2.5 mi WSW 28.8 mph 38.0 mph N/A Snow Light Snow
12:05 PM 35.6 °F 23.4 °F 26.6 °F 70% 29.76 in 7.0 mi SW 25.3 mph 34.5 mph 0.00 in Snow Light Snow
12:36 PM 33.8 °F 22.8 °F 26.6 °F 75% 29.76 in 10.0 mi South 18.4 mph - 0.00 in   Scattered Clouds
12:56 PM 34.0 °F 22.4 °F 22.1 °F 62% 29.69 in 10.0 mi SW 20.7 mph 26.5 mph 0.00 in   Clear
1:56 PM 31.1 °F 17.4 °F 23.0 °F 72% 29.75 in 10.0 mi SW 25.3 mph 40.3 mph N/A   Mostly Cloudy
2:43 PM 30.2 °F 16.2 °F 23.0 °F 75% 29.82 in 2.5 mi SW 25.3 mph 32.2 mph 0.00 in   Overcast
2:56 PM 31.1 °F 18.0 °F 22.1 °F 69% 29.78 in 5.0 mi SSW 23.0 mph 31.1 mph 0.00 in   Overcast
3:02 PM 30.2 °F 15.9 °F 23.0 °F 75% 29.85 in 2.5 mi SW 26.5 mph 38.0 mph 0.00 in   Mostly Cloudy
3:06 PM 30.2 °F 18.1 °F 23.0 °F 75% 29.85 in 1.8 mi SW 18.4 mph 38.0 mph 0.00 in Snow Light Snow
3:12 PM 30.2 °F 18.5 °F 23.0 °F 75% 29.85 in 4.0 mi SW 17.3 mph 31.1 mph 0.00 in Snow Light Snow
3:31 PM 28.4 °F 15.1 °F 24.8 °F 86% 29.87 in 1.8 mi SW 20.7 mph 29.9 mph 0.00 in Snow Light Snow
3:34 PM 28.4 °F 15.4 °F 24.8 °F 86% 29.87 in 1.2 mi WSW 19.6 mph 25.3 mph 0.00 in Snow Light Snow
3:39 PM 28.4 °F 14.7 °F 24.8 °F 86% 29.88 in 1.0 mi SW 21.9 mph 26.5 mph 0.00 in Snow Light Snow
3:43 PM 28.4 °F 14.1 °F 24.8 °F 86% 29.88 in 0.5 mi SW 24.2 mph - 0.00 in Fog , Snow Light Snow
3:56 PM 27.1 °F 14.9 °F 24.1 °F 88% 29.87 in 1.0 mi SW 16.1 mph - 0.00 in Snow Light Snow
3:59 PM 26.6 °F 14.3 °F 24.8 °F 93% 29.89 in 1.5 mi SSW 16.1 mph - 0.00 in Snow Light Snow
4:18 PM 28.4 °F 16.6 °F 24.8 °F 86% 29.91 in 2.5 mi WSW 16.1 mph 20.7 mph 0.00 in Snow Light Snow
4:25 PM 28.4 °F 17.5 °F 23.0 °F 80% 29.92 in 2.0 mi WSW 13.8 mph 20.7 mph 0.00 in Snow Light Snow
4:41 PM 28.4 °F 21.2 °F 23.0 °F 80% 29.93 in 10.0 mi West 6.9 mph - 0.00 in Snow Light Snow
4:56 PM 28.0 °F 16.1 °F 23.0 °F 81% 29.91 in 2.0 mi West 16.1 mph - 0.00 in Snow Light Snow
5:08 PM 26.6 °F 13.8 °F 23.0 °F 86% 29.95 in 1.2 mi West 17.3 mph 26.5 mph 0.00 in Snow Light Snow
5:23 PM 26.6 °F 16.8 °F 24.8 °F 93% 29.96 in 0.8 mi WNW 10.4 mph - 0.00 in Snow Light Snow
5:29 PM 26.6 °F 18.2 °F 24.8 °F 93% 29.96 in 1.2 mi NW 8.1 mph - 0.00 in Snow Light Snow
5:45 PM 26.6 °F 16.2 °F 24.8 °F 93% 29.98 in 1.0 mi NW 11.5 mph - 0.00 in Snow Light Snow
5:49 PM 26.6 °F 16.8 °F 24.8 °F 93% 29.99 in 0.5 mi NW 10.4 mph - 0.00 in Fog , Snow Light Snow
5:56 PM 26.1 °F 18.4 °F 24.1 °F 92% 29.96 in 0.2 mi NW 6.9 mph - 0.00 in Fog , Snow Light Snow
6:08 PM 26.6 °F 19.1 °F 24.8 °F 93% 30.00 in 0.2 mi West 6.9 mph - 0.00 in Fog , Snow Light Snow
6:23 PM 26.6 °F 19.1 °F 24.8 °F 93% 30.01 in 0.8 mi Variable 6.9 mph - 0.00 in Snow Light Snow
6:25 PM 24.8 °F 17.9 °F 24.8 °F 100% 30.01 in 1.2 mi Variable 5.8 mph - 0.00 in Snow Light Snow
6:27 PM 24.8 °F 19.1 °F 24.8 °F 100% 30.02 in 4.0 mi Variable 4.6 mph - 0.00 in Snow Light Snow
6:37 PM 24.8 °F - 23.0 °F 93% 30.04 in 10.0 mi Calm Calm - 0.00 in Snow Light Snow
6:56 PM 23.0 °F 14.7 °F 21.0 °F 92% 30.04 in 10.0 mi SSE 6.9 mph - 0.00 in   Mostly Cloudy
7:56 PM 21.0 °F 11.4 °F 16.2 °F 81% 30.11 in 10.0 mi SSE 8.1 mph - N/A   Mostly Cloudy
8:56 PM 19.0 °F 7.5 °F 14.0 °F 81% 30.12 in 10.0 mi SSE 10.4 mph - N/A   Clear
9:56 PM 22.1 °F 8.0 °F 14.0 °F 71% 30.14 in 10.0 mi South 17.3 mph - N/A   Clear
10:56 PM 22.1 °F 8.9 °F 12.0 °F 65% 30.14 in 10.0 mi SSE 15.0 mph - N/A   Clear
11:56 PM 23.0 °F 9.6 °F 12.0 °F 63% 30.16 in 10.0 mi South 16.1 mph 25.3 mph N/A   Clear